"read_dt","SO2 (ppb)","flags","PMT voltage (V)","lamp voltage (V)","lamp intensity (Hz)","internal temp (C)","react chamber temp (C)","sample flow (l/min)","pres (mmHg)","SO2 bkg (ppb)","SO2 coefficient"
2015-08-23 00:00:00,2049E-3,5C000400,-0724,0820,12222,028.3,045.5,0.255,753.9,01.17,0.508
2015-08-23 00:01:00,1983E-3,5C000400,-0724,0820,12305,028.3,045.5,0.256,753.9,01.17,0.508
2015-08-23 00:02:00,1968E-3,5C000400,-0724,0820,12279,028.3,045.5,0.256,754.0,01.17,0.508
2015-08-23 00:03:00,1989E-3,5C000400,-0724,0821,12244,028.3,045.5,0.256,754.0,01.17,0.508
2015-08-23 00:04:00,2013E-3,5C000400,-0724,0820,12322,028.3,045.5,0.256,753.9,01.17,0.508
2015-08-23 00:05:00,1999E-3,5C000400,-0724,0820,12287,028.3,045.5,0.256,753.9,01.17,0.508
2015-08-23 00:06:00,1917E-3,5C000400,-0724,0820,12236,028.3,045.5,0.256,754.0,01.17,0.508
2015-08-23 00:07:00,2008E-3,5C000400,-0724,0820,12006,028.3,045.5,0.256,754.1,01.17,0.508
2015-08-23 00:08:00,1946E-3,5C000400,-0724,0820,12141,028.3,045.5,0.255,754.2,01.17,0.508
2015-08-23 00:09:00,1881E-3,5C000400,-0724,0820,12316,028.3,045.5,0.256,754.1,01.17,0.508
2015-08-23 00:10:00,1774E-3,5C000400,-0724,0820,12319,028.3,045.5,0.256,754.1,01.17,0.508
2015-08-23 00:11:00,1935E-3,5C000400,-0724,0820,12306,028.3,045.5,0.256,754.1,01.17,0.508
2015-08-23 00:12:00,1912E-3,5C000400,-0724,0820,12361,028.3,045.5,0.256,754.0,01.17,0.508
2015-08-23 00:13:00,1981E-3,5C000400,-0724,0820,12179,028.3,045.4,0.256,754.2,01.17,0.508
2015-08-23 00:14:00,1880E-3,5C000400,-0724,0820,12195,028.3,045.5,0.256,754.1,01.17,0.508
2015-08-23 00:15:00,1865E-3,5C000400,-0724,0821,12272,028.3,045.5,0.256,754.4,01.17,0.508
2015-08-23 00:16:00,1912E-3,5C000400,-0724,0821,12218,028.3,045.5,0.256,754.3,01.17,0.508
2015-08-23 00:17:00,2005E-3,5C000400,-0724,0820,12170,028.3,045.5,0.256,754.2,01.17,0.508
2015-08-23 00:18:00,2027E-3,5C000400,-0724,0821,12341,028.3,045.5,0.256,754.4,01.17,0.508
2015-08-23 00:19:00,2029E-3,5C000400,-0724,0821,12177,028.3,045.5,0.256,754.5,01.17,0.508
2015-08-23 00:20:00,1982E-3,5C000400,-0724,0820,12377,028.3,045.5,0.256,754.4,01.17,0.508
2015-08-23 00:21:00,1978E-3,5C000400,-0724,0821,12442,028.3,045.5,0.256,754.5,01.17,0.508
2015-08-23 00:22:00,1962E-3,5C000400,-0724,0820,12399,028.3,045.5,0.256,754.6,01.17,0.508
2015-08-23 00:23:00,2031E-3,5C000400,-0724,0820,12285,028.3,045.5,0.256,754.6,01.17,0.508
2015-08-23 00:24:00,2074E-3,5C000400,-0724,0820,12374,028.3,045.5,0.256,754.6,01.17,0.508
2015-08-23 00:25:00,1978E-3,5C000400,-0724,0820,12410,028.3,045.5,0.256,754.5,01.17,0.508
2015-08-23 00:26:00,1973E-3,5C000400,-0724,0819,12320,028.3,045.5,0.256,754.7,01.17,0.508
2015-08-23 00:27:00,2106E-3,5C000400,-0724,0820,12334,028.3,045.5,0.256,754.8,01.17,0.508
2015-08-23 00:28:00,2141E-3,5C000400,-0724,0821,12348,028.3,045.5,0.256,754.7,01.17,0.508
2015-08-23 00:29:00,1928E-3,5C000400,-0724,0820,12288,028.3,045.5,0.255,754.7,01.17,0.508
2015-08-23 00:30:00,2017E-3,5C000400,-0724,0820,12299,028.3,045.5,0.256,754.7,01.17,0.508
2015-08-23 00:31:00,1900E-3,5C000400,-0724,0820,12155,028.3,045.5,0.256,754.7,01.17,0.508
2015-08-23 00:32:00,1977E-3,5C000400,-0724,0820,12191,028.3,045.5,0.256,754.6,01.17,0.508
2015-08-23 00:33:00,1995E-3,5C000400,-0724,0820,12329,028.3,045.5,0.256,754.6,01.17,0.508
2015-08-23 00:34:00,2035E-3,5C000400,-0724,0820,12305,028.3,045.5,0.256,754.6,01.17,0.508
2015-08-23 00:35:00,1883E-3,5C000400,-0724,0821,12367,028.3,045.5,0.256,754.6,01.17,0.508
2015-08-23 00:36:00,1939E-3,5C000400,-0724,0819,12213,028.3,045.5,0.256,754.7,01.17,0.508
2015-08-23 00:37:00,1995E-3,5C000400,-0724,0820,12479,028.3,045.5,0.256,754.7,01.17,0.508
2015-08-23 00:38:00,1977E-3,5C000400,-0724,0820,12238,028.3,045.5,0.256,754.6,01.17,0.508
2015-08-23 00:39:00,2030E-3,5C000400,-0724,0819,12256,028.3,045.5,0.256,754.6,01.17,0.508
2015-08-23 00:40:00,1990E-3,5C000400,-0724,0820,12404,028.3,045.4,0.256,754.6,01.17,0.508
2015-08-23 00:41:00,1972E-3,5C000400,-0724,0820,12320,028.3,045.5,0.256,754.6,01.17,0.508
2015-08-23 00:42:00,1965E-3,5C000400,-0724,0820,12164,028.3,045.5,0.256,754.6,01.17,0.508
2015-08-23 00:43:00,2043E-3,5C000400,-0724,0820,12286,028.3,045.5,0.256,754.6,01.17,0.508
2015-08-23 00:44:00,2084E-3,5C000400,-0724,0820,12294,028.3,045.5,0.255,754.6,01.17,0.508
2015-08-23 00:45:00,2071E-3,5C000400,-0724,0820,12332,028.3,045.5,0.256,754.6,01.17,0.508
2015-08-23 00:46:00,2139E-3,5C000400,-0724,0820,12408,028.3,045.5,0.256,754.5,01.17,0.508
2015-08-23 00:47:00,2018E-3,5C000400,-0724,0821,12312,028.3,045.5,0.256,754.4,01.17,0.508
2015-08-23 00:48:00,1996E-3,5C000400,-0724,0821,12148,028.3,045.4,0.255,754.5,01.17,0.508
2015-08-23 00:49:00,1879E-3,5C000400,-0724,0820,12204,028.3,045.5,0.256,754.6,01.17,0.508
2015-08-23 00:50:00,1920E-3,5C000400,-0724,0821,12255,028.3,045.5,0.256,754.6,01.17,0.508
2015-08-23 00:51:00,2026E-3,5C000400,-0724,0821,12096,028.3,045.5,0.256,754.6,01.17,0.508
2015-08-23 00:52:00,2014E-3,5C000400,-0724,0821,12167,028.3,045.5,0.256,754.6,01.17,0.508
2015-08-23 00:53:00,2077E-3,5C000400,-0724,0821,12371,028.3,045.5,0.256,754.6,01.17,0.508
2015-08-23 00:54:00,1988E-3,5C000400,-0724,0821,12339,028.3,045.5,0.256,754.6,01.17,0.508
2015-08-23 00:55:00,2065E-3,5C000400,-0724,0821,12316,028.3,045.5,0.256,754.6,01.17,0.508
2015-08-23 00:56:00,1889E-3,5C000400,-0724,0820,12203,028.3,045.5,0.256,754.5,01.17,0.508
2015-08-23 00:57:00,2077E-3,5C000400,-0724,0820,12244,028.3,045.5,0.256,754.5,01.17,0.508
2015-08-23 00:58:00,2039E-3,5C000400,-0724,0821,12174,028.3,045.5,0.256,754.5,01.17,0.508
2015-08-23 00:59:00,2064E-3,5C000400,-0724,0820,12397,028.3,045.5,0.256,754.4,01.17,0.508
2015-08-23 01:00:00,1895E-3,5C000400,-0724,0821,12408,028.3,045.5,0.256,754.5,01.17,0.508
2015-08-23 01:01:00,2021E-3,5C000400,-0724,0821,12271,028.3,045.5,0.256,754.3,01.17,0.508
2015-08-23 01:02:00,2045E-3,5C000400,-0724,0820,12247,028.3,045.5,0.256,754.3,01.17,0.508
2015-08-23 01:03:00,2056E-3,5C000400,-0724,0820,12373,028.3,045.5,0.256,754.3,01.17,0.508
2015-08-23 01:04:00,1977E-3,5C000400,-0724,0820,12257,028.3,045.5,0.255,754.1,01.17,0.508
2015-08-23 01:05:00,1858E-3,5C000400,-0724,0820,12245,028.3,045.5,0.256,754.3,01.17,0.508
2015-08-23 01:06:00,1945E-3,5C000400,-0724,0820,12168,028.3,045.5,0.256,754.2,01.17,0.508
2015-08-23 01:07:00,1945E-3,5C000400,-0724,0820,12315,028.3,045.5,0.256,754.2,01.17,0.508
2015-08-23 01:08:00,2060E-3,5C000400,-0724,0820,12349,028.3,045.5,0.256,754.3,01.17,0.508
2015-08-23 01:09:00,1988E-3,5C000400,-0724,0821,12331,028.3,045.5,0.256,754.3,01.17,0.508
2015-08-23 01:10:00,1986E-3,5C000400,-0724,0820,12222,028.3,045.5,0.256,754.2,01.17,0.508
2015-08-23 01:11:00,1991E-3,5C000400,-0724,0820,12194,028.3,045.5,0.256,754.1,01.17,0.508
2015-08-23 01:12:00,2073E-3,5C000400,-0724,0820,12260,028.3,045.5,0.256,754.1,01.17,0.508
2015-08-23 01:13:00,1922E-3,5C000400,-0724,0820,12380,028.3,045.5,0.256,754.0,01.17,0.508
2015-08-23 01:14:00,2084E-3,5C000400,-0724,0820,12257,028.3,045.5,0.256,753.9,01.17,0.508
2015-08-23 01:15:00,1917E-3,5C000400,-0724,0821,12401,028.3,045.5,0.256,753.8,01.17,0.508
2015-08-23 01:16:00,1997E-3,5C000400,-0724,0820,12232,028.3,045.5,0.256,753.8,01.17,0.508
2015-08-23 01:17:00,2030E-3,5C000400,-0724,0821,12422,028.3,045.5,0.256,753.9,01.17,0.508
2015-08-23 01:18:00,1823E-3,5C000400,-0724,0821,12326,028.3,045.5,0.256,753.8,01.17,0.508
2015-08-23 01:19:00,1970E-3,5C000400,-0724,0820,12238,028.3,045.5,0.255,753.7,01.17,0.508
2015-08-23 01:20:00,1952E-3,5C000400,-0724,0821,12247,028.3,045.5,0.256,753.7,01.17,0.508
2015-08-23 01:21:00,2057E-3,5C000400,-0724,0821,12330,028.3,045.5,0.256,753.7,01.17,0.508
2015-08-23 01:22:00,2054E-3,5C000400,-0724,0820,12328,028.3,045.5,0.256,753.8,01.17,0.508
2015-08-23 01:23:00,1944E-3,5C000400,-0724,0821,12255,028.3,045.5,0.256,753.6,01.17,0.508
2015-08-23 01:24:00,1887E-3,5C000400,-0724,0821,12250,028.3,045.5,0.256,753.5,01.17,0.508
2015-08-23 01:25:00,1918E-3,5C000400,-0724,0820,12317,028.3,045.5,0.256,753.4,01.17,0.508
2015-08-23 01:26:00,2004E-3,5C000400,-0724,0821,12208,028.3,045.5,0.256,753.4,01.17,0.508
2015-08-23 01:27:00,2031E-3,5C000400,-0724,0820,12256,028.3,045.5,0.255,753.5,01.17,0.508
2015-08-23 01:28:00,1953E-3,5C000400,-0724,0821,12211,028.3,045.5,0.256,753.6,01.17,0.508
2015-08-23 01:29:00,2057E-3,5C000400,-0724,0821,12328,028.3,045.5,0.256,753.5,01.17,0.508
2015-08-23 01:30:00,1958E-3,5C000400,-0724,0820,12367,028.3,045.5,0.256,753.5,01.17,0.508
2015-08-23 01:31:00,2060E-3,5C000400,-0724,0821,12264,028.3,045.5,0.256,753.7,01.17,0.508
2015-08-23 01:32:00,1982E-3,5C000400,-0724,0821,12290,028.3,045.5,0.256,753.4,01.17,0.508
2015-08-23 01:33:00,1972E-3,5C000400,-0724,0820,12326,028.3,045.5,0.256,753.5,01.17,0.508
2015-08-23 01:34:00,1907E-3,5C000400,-0724,0820,12179,028.3,045.5,0.256,753.6,01.17,0.508
2015-08-23 01:35:00,2033E-3,5C000400,-0724,0820,12284,028.3,045.5,0.256,753.5,01.17,0.508
2015-08-23 01:36:00,2068E-3,5C000400,-0724,0821,12170,028.3,045.5,0.256,753.7,01.17,0.508
2015-08-23 01:37:00,1862E-3,5C000400,-0724,0820,12096,028.3,045.5,0.256,753.5,01.17,0.508
2015-08-23 01:38:00,1921E-3,5C000400,-0724,0820,12227,028.3,045.5,0.256,753.6,01.17,0.508
2015-08-23 01:39:00,1950E-3,5C000400,-0724,0820,12362,028.3,045.5,0.256,753.7,01.17,0.508
2015-08-23 01:40:00,1936E-3,5C000400,-0724,0820,12158,028.3,045.5,0.256,753.7,01.17,0.508
2015-08-23 01:41:00,2011E-3,5C000400,-0724,0820,12364,028.3,045.5,0.256,753.8,01.17,0.508
2015-08-23 01:42:00,1984E-3,5C000400,-0724,0820,12309,028.3,045.5,0.255,753.6,01.17,0.508
2015-08-23 01:43:00,1964E-3,5C000400,-0724,0820,12358,028.3,045.5,0.256,753.7,01.17,0.508
2015-08-23 01:44:00,2089E-3,5C000400,-0724,0821,12317,028.3,045.4,0.256,753.6,01.17,0.508
2015-08-23 01:45:00,2200E-3,5C000400,-0724,0820,12203,028.3,045.5,0.256,753.6,01.17,0.508
2015-08-23 01:46:00,2001E-3,5C000400,-0724,0820,12407,028.3,045.4,0.256,753.6,01.17,0.508
2015-08-23 01:47:00,1928E-3,5C000400,-0724,0821,12193,028.3,045.5,0.256,753.6,01.17,0.508
2015-08-23 01:48:00,1994E-3,5C000400,-0724,0820,12227,028.3,045.5,0.256,753.6,01.17,0.508
2015-08-23 01:49:00,1966E-3,5C000400,-0724,0821,12248,028.3,045.5,0.255,753.7,01.17,0.508
2015-08-23 01:50:00,1954E-3,5C000400,-0724,0821,12399,028.3,045.5,0.256,753.7,01.17,0.508
2015-08-23 01:51:00,1921E-3,5C000400,-0724,0820,12224,028.3,045.5,0.256,753.6,01.17,0.508
2015-08-23 01:52:00,2017E-3,5C000400,-0724,0820,12361,028.3,045.5,0.256,753.5,01.17,0.508
2015-08-23 01:53:00,2039E-3,5C000400,-0724,0819,12233,028.3,045.5,0.255,753.5,01.17,0.508
2015-08-23 01:54:00,1958E-3,5C000400,-0724,0820,12362,028.3,045.5,0.256,753.5,01.17,0.508
2015-08-23 01:55:00,2048E-3,5C000400,-0724,0820,12174,028.3,045.5,0.256,753.4,01.17,0.508
2015-08-23 01:56:00,1923E-3,5C000400,-0724,0821,12380,028.3,045.4,0.256,753.1,01.17,0.508
2015-08-23 01:57:00,2093E-3,5C000400,-0724,0819,12285,028.3,045.5,0.256,753.3,01.17,0.508
2015-08-23 01:58:00,2009E-3,5C000400,-0724,0821,12226,028.3,045.5,0.256,753.4,01.17,0.508
2015-08-23 01:59:00,2006E-3,5C000400,-0724,0820,12303,028.3,045.5,0.256,753.3,01.17,0.508
2015-08-23 02:00:00,2080E-3,5C000400,-0724,0820,12220,028.3,045.5,0.255,753.3,01.17,0.508
2015-08-23 02:01:00,1961E-3,5C000400,-0724,0820,12114,028.3,045.5,0.256,753.1,01.17,0.508
2015-08-23 02:02:00,2119E-3,5C000400,-0724,0821,12409,028.3,045.5,0.256,753.2,01.17,0.508
2015-08-23 02:03:00,2096E-3,5C000400,-0724,0820,12284,028.3,045.5,0.256,752.9,01.17,0.508
2015-08-23 02:04:00,2020E-3,5C000400,-0724,0820,12087,028.3,045.5,0.256,753.0,01.17,0.508
2015-08-23 02:05:00,2003E-3,5C000400,-0724,0820,12257,028.3,045.5,0.256,753.1,01.17,0.508
2015-08-23 02:06:00,1992E-3,5C000400,-0724,0820,12340,028.3,045.5,0.256,753.2,01.17,0.508
2015-08-23 02:07:00,1869E-3,5C000400,-0724,0820,12394,028.3,045.5,0.255,753.2,01.17,0.508
2015-08-23 02:08:00,1785E-3,5C000400,-0724,0820,12285,028.3,045.5,0.256,753.3,01.17,0.508
2015-08-23 02:09:00,2089E-3,5C000400,-0724,0819,12275,028.3,045.4,0.256,753.5,01.17,0.508
2015-08-23 02:10:00,1971E-3,5C000400,-0724,0820,12163,028.3,045.5,0.256,753.3,01.17,0.508
2015-08-23 02:11:00,1930E-3,5C000400,-0724,0820,12346,028.3,045.5,0.256,753.5,01.17,0.508
2015-08-23 02:12:00,1996E-3,5C000400,-0724,0821,12312,028.3,045.5,0.256,753.2,01.17,0.508
2015-08-23 02:13:00,2011E-3,5C000400,-0724,0820,12229,028.3,045.5,0.256,753.3,01.17,0.508
2015-08-23 02:14:00,1984E-3,5C000400,-0724,0820,12362,028.3,045.5,0.256,753.3,01.17,0.508
2015-08-23 02:15:00,1979E-3,5C000400,-0724,0821,12263,028.3,045.4,0.256,753.3,01.17,0.508
2015-08-23 02:16:00,1971E-3,5C000400,-0724,0820,12185,028.3,045.5,0.256,753.6,01.17,0.508
2015-08-23 02:17:00,2003E-3,5C000400,-0724,0820,12096,028.3,045.5,0.256,753.4,01.17,0.508
2015-08-23 02:18:00,1989E-3,5C000400,-0724,0820,12346,028.3,045.5,0.256,753.6,01.17,0.508
2015-08-23 02:19:00,2092E-3,5C000400,-0724,0819,12327,028.3,045.5,0.256,753.8,01.17,0.508
2015-08-23 02:20:00,1945E-3,5C000400,-0724,0820,12151,028.3,045.5,0.256,753.8,01.17,0.508
2015-08-23 02:21:00,2078E-3,5C000400,-0724,0821,12248,028.3,045.5,0.256,754.0,01.17,0.508
2015-08-23 02:22:00,1953E-3,5C000400,-0724,0820,12437,028.3,045.5,0.256,754.0,01.17,0.508
2015-08-23 02:23:00,2034E-3,5C000400,-0724,0820,12330,028.3,045.5,0.256,754.1,01.17,0.508
2015-08-23 02:24:00,2041E-3,5C000400,-0724,0820,12431,028.3,045.5,0.256,754.0,01.17,0.508
2015-08-23 02:25:00,1971E-3,5C000400,-0724,0821,12263,028.3,045.5,0.256,753.8,01.17,0.508
2015-08-23 02:26:00,1937E-3,5C000400,-0724,0820,12400,028.3,045.5,0.256,753.9,01.17,0.508
2015-08-23 02:27:00,1930E-3,5C000400,-0724,0820,12434,028.2,045.5,0.256,754.0,01.17,0.508
2015-08-23 02:28:00,1799E-3,5C000400,-0724,0821,12415,028.3,045.5,0.256,753.9,01.17,0.508
2015-08-23 02:29:00,1942E-3,5C000400,-0724,0819,12268,028.3,045.4,0.255,753.9,01.17,0.508
2015-08-23 02:30:00,1903E-3,5C000400,-0724,0820,12297,028.3,045.5,0.256,754.0,01.17,0.508
2015-08-23 02:31:00,2025E-3,5C000400,-0724,0820,12199,028.3,045.5,0.256,753.9,01.17,0.508
2015-08-23 02:32:00,2040E-3,5C000400,-0724,0820,12286,028.3,045.5,0.256,753.8,01.17,0.508
2015-08-23 02:33:00,1880E-3,5C000400,-0724,0820,12331,028.3,045.5,0.256,753.8,01.17,0.508
2015-08-23 02:34:00,2119E-3,5C000400,-0724,0820,12293,028.3,045.5,0.256,753.7,01.17,0.508
2015-08-23 02:35:00,1907E-3,5C000400,-0724,0821,12169,028.3,045.5,0.256,753.7,01.17,0.508
2015-08-23 02:36:00,2126E-3,5C000400,-0724,0820,12224,028.3,045.5,0.256,753.5,01.17,0.508
2015-08-23 02:37:00,2066E-3,5C000400,-0724,0820,12403,028.3,045.5,0.256,753.4,01.17,0.508
2015-08-23 02:38:00,2047E-3,5C000400,-0724,0821,12374,028.3,045.5,0.255,753.4,01.17,0.508
2015-08-23 02:39:00,2080E-3,5C000400,-0724,0820,12205,028.3,045.5,0.256,753.6,01.17,0.508
2015-08-23 02:40:00,1957E-3,5C000400,-0724,0821,12324,028.3,045.5,0.256,753.6,01.17,0.508
2015-08-23 02:41:00,1934E-3,5C000400,-0724,0820,12265,028.3,045.5,0.255,753.8,01.17,0.508
2015-08-23 02:42:00,2055E-3,5C000400,-0724,0821,12292,028.3,045.5,0.256,753.7,01.17,0.508
2015-08-23 02:43:00,1960E-3,5C000400,-0724,0821,12282,028.3,045.5,0.256,753.8,01.17,0.508
2015-08-23 02:44:00,1994E-3,5C000400,-0724,0821,12076,028.3,045.5,0.256,753.7,01.17,0.508
2015-08-23 02:45:00,1979E-3,5C000400,-0724,0821,12350,028.3,045.5,0.256,753.8,01.17,0.508
2015-08-23 02:46:00,1853E-3,5C000400,-0724,0821,12256,028.3,045.5,0.256,753.7,01.17,0.508
2015-08-23 02:47:00,1957E-3,5C000400,-0724,0821,12279,028.3,045.5,0.256,753.8,01.17,0.508
2015-08-23 02:48:00,1997E-3,5C000400,-0724,0821,12155,028.3,045.4,0.256,753.9,01.17,0.508
2015-08-23 02:49:00,1924E-3,5C000400,-0724,0820,12357,028.3,045.5,0.256,753.9,01.17,0.508
2015-08-23 02:50:00,2033E-3,5C000400,-0724,0820,12356,028.3,045.5,0.256,753.9,01.17,0.508
2015-08-23 02:51:00,1987E-3,5C000400,-0724,0820,12232,028.3,045.4,0.256,753.8,01.17,0.508
2015-08-23 02:52:00,1903E-3,5C000400,-0724,0821,12294,028.3,045.5,0.256,753.9,01.17,0.508
2015-08-23 02:53:00,1891E-3,5C000400,-0724,0821,12374,028.3,045.5,0.256,753.8,01.17,0.508
2015-08-23 02:54:00,2079E-3,5C000400,-0724,0821,12185,028.3,045.5,0.256,754.0,01.17,0.508
2015-08-23 02:55:00,2052E-3,5C000400,-0724,0821,12259,028.3,045.5,0.256,753.8,01.17,0.508
2015-08-23 02:56:00,1930E-3,5C000400,-0724,0820,12376,028.3,045.5,0.256,753.9,01.17,0.508
2015-08-23 02:57:00,2038E-3,5C000400,-0724,0821,12313,028.3,045.5,0.256,753.9,01.17,0.508
2015-08-23 02:58:00,1985E-3,5C000400,-0724,0820,12219,028.3,045.5,0.255,754.0,01.17,0.508
2015-08-23 02:59:00,2091E-3,5C000400,-0724,0821,12202,028.3,045.5,0.256,753.9,01.17,0.508
2015-08-23 03:00:00,2014E-3,5C000400,-0724,0821,12383,028.3,045.5,0.256,753.8,01.17,0.508
2015-08-23 03:01:00,1981E-3,5C000400,-0724,0820,12415,028.2,045.5,0.256,753.7,01.17,0.508
2015-08-23 03:02:00,2014E-3,5C000400,-0724,0822,12302,028.2,045.5,0.256,753.7,01.17,0.508
2015-08-23 03:03:00,1966E-3,5C000400,-0724,0820,12178,028.3,045.5,0.256,753.6,01.17,0.508
2015-08-23 03:04:00,1955E-3,5C000400,-0724,0820,12135,028.2,045.5,0.256,753.7,01.17,0.508
2015-08-23 03:05:00,1964E-3,5C000400,-0724,0821,12156,028.2,045.5,0.256,753.7,01.17,0.508
2015-08-23 03:06:00,1947E-3,5C000400,-0724,0821,12202,028.3,045.5,0.255,753.7,01.17,0.508
2015-08-23 03:07:00,2045E-3,5C000400,-0724,0820,12425,028.3,045.4,0.256,753.7,01.17,0.508
2015-08-23 03:08:00,1979E-3,5C000400,-0724,0821,12261,028.2,045.5,0.256,753.7,01.17,0.508
2015-08-23 03:09:00,2030E-3,5C000400,-0724,0820,12191,028.3,045.5,0.256,753.7,01.17,0.508
2015-08-23 03:10:00,2073E-3,5C000400,-0724,0821,12417,028.3,045.5,0.256,753.6,01.17,0.508
2015-08-23 03:11:00,1889E-3,5C000400,-0724,0820,12214,028.3,045.5,0.256,753.6,01.17,0.508
2015-08-23 03:12:00,2054E-3,5C000400,-0724,0820,12400,028.3,045.5,0.256,753.5,01.17,0.508
2015-08-23 03:13:00,2051E-3,5C000400,-0724,0820,12378,028.3,045.5,0.256,753.4,01.17,0.508
2015-08-23 03:14:00,2020E-3,5C000400,-0724,0820,12222,028.2,045.5,0.256,753.5,01.17,0.508
2015-08-23 03:15:00,1963E-3,5C000400,-0724,0820,12225,028.3,045.5,0.256,753.5,01.17,0.508
2015-08-23 03:16:00,1996E-3,5C000400,-0724,0821,12332,028.3,045.5,0.256,753.5,01.17,0.508
2015-08-23 03:17:00,1982E-3,5C000400,-0724,0820,12230,028.3,045.5,0.256,753.5,01.17,0.508
2015-08-23 03:18:00,2022E-3,5C000400,-0724,0821,12297,028.3,045.5,0.256,753.4,01.17,0.508
2015-08-23 03:19:00,1801E-3,5C000400,-0724,0820,12263,028.2,045.5,0.255,753.3,01.17,0.508
2015-08-23 03:20:00,1945E-3,5C000400,-0724,0820,12259,028.2,045.4,0.256,753.5,01.17,0.508
2015-08-23 03:21:00,2007E-3,5C000400,-0724,0820,12257,028.3,045.5,0.256,753.2,01.17,0.508
2015-08-23 03:22:00,2088E-3,5C000400,-0724,0821,12275,028.2,045.5,0.256,753.3,01.17,0.508
2015-08-23 03:23:00,1978E-3,5C000400,-0724,0820,12332,028.3,045.4,0.256,753.3,01.17,0.508
2015-08-23 03:24:00,2074E-3,5C000400,-0724,0820,12370,028.3,045.5,0.256,753.2,01.17,0.508
2015-08-23 03:25:00,1946E-3,5C000400,-0724,0820,12316,028.3,045.5,0.256,753.2,01.17,0.508
2015-08-23 03:26:00,2102E-3,5C000400,-0724,0819,12381,028.3,045.5,0.256,753.3,01.17,0.508
2015-08-23 03:27:00,2187E-3,5C000400,-0724,0821,12330,028.2,045.5,0.256,753.1,01.17,0.508
2015-08-23 03:28:00,1968E-3,5C000400,-0724,0820,12118,028.3,045.5,0.256,753.2,01.17,0.508
2015-08-23 03:29:00,2014E-3,5C000400,-0724,0820,12163,028.3,045.5,0.256,753.2,01.17,0.508
2015-08-23 03:30:00,1948E-3,5C000400,-0724,0820,12305,028.3,045.5,0.256,753.2,01.17,0.508
2015-08-23 03:31:00,2119E-3,5C000400,-0724,0820,12118,028.3,045.5,0.256,753.2,01.17,0.508
2015-08-23 03:32:00,2055E-3,5C000400,-0724,0820,12382,028.2,045.5,0.256,753.3,01.17,0.508
2015-08-23 03:33:00,1946E-3,5C000400,-0724,0820,12215,028.3,045.5,0.256,753.3,01.17,0.508
2015-08-23 03:34:00,1966E-3,5C000400,-0724,0820,12293,028.2,045.5,0.256,753.2,01.17,0.508
2015-08-23 03:35:00,1911E-3,5C000400,-0724,0820,12397,028.2,045.5,0.256,753.4,01.17,0.508
2015-08-23 03:36:00,1885E-3,5C000400,-0724,0820,12372,028.2,045.5,0.256,753.3,01.17,0.508
2015-08-23 03:37:00,2060E-3,5C000400,-0724,0820,12329,028.2,045.5,0.256,753.4,01.17,0.508
2015-08-23 03:38:00,2112E-3,5C000400,-0724,0820,12253,028.2,045.5,0.255,753.5,01.17,0.508
2015-08-23 03:39:00,2007E-3,5C000400,-0724,0821,12310,028.2,045.5,0.256,753.6,01.17,0.508
2015-08-23 03:40:00,1972E-3,5C000400,-0724,0821,12343,028.2,045.5,0.256,753.5,01.17,0.508
2015-08-23 03:41:00,2034E-3,5C000400,-0724,0820,12371,028.2,045.5,0.256,753.5,01.17,0.508
2015-08-23 03:42:00,1904E-3,5C000400,-0724,0820,12259,028.2,045.5,0.256,753.5,01.17,0.508
2015-08-23 03:43:00,1948E-3,5C000400,-0724,0821,12271,028.2,045.5,0.256,753.3,01.17,0.508
2015-08-23 03:44:00,1832E-3,5C000400,-0724,0820,12239,028.2,045.5,0.256,753.4,01.17,0.508
2015-08-23 03:45:00,1995E-3,5C000400,-0724,0821,12230,028.2,045.5,0.256,753.2,01.17,0.508
2015-08-23 03:46:00,1884E-3,5C000400,-0724,0820,12230,028.2,045.5,0.256,753.3,01.17,0.508
2015-08-23 03:47:00,2055E-3,5C000400,-0724,0821,12257,028.2,045.5,0.256,753.2,01.17,0.508
2015-08-23 03:48:00,2069E-3,5C000400,-0724,0820,12163,028.3,045.5,0.256,753.2,01.17,0.508
2015-08-23 03:49:00,1942E-3,5C000400,-0724,0820,12269,028.2,045.5,0.256,753.3,01.17,0.508
2015-08-23 03:50:00,1970E-3,5C000400,-0724,0820,12242,028.2,045.5,0.256,753.3,01.17,0.508
2015-08-23 03:51:00,1886E-3,5C000400,-0724,0820,12204,028.2,045.5,0.256,753.2,01.17,0.508
2015-08-23 03:52:00,2057E-3,5C000400,-0724,0821,12089,028.2,045.5,0.256,753.1,01.17,0.508
2015-08-23 03:53:00,1982E-3,5C000400,-0724,0821,12318,028.2,045.5,0.256,753.2,01.17,0.508
2015-08-23 03:54:00,2113E-3,5C000400,-0724,0820,12274,028.2,045.5,0.256,753.1,01.17,0.508
2015-08-23 03:55:00,1913E-3,5C000400,-0724,0821,12324,028.2,045.5,0.256,753.0,01.17,0.508
2015-08-23 03:56:00,2096E-3,5C000400,-0724,0821,12269,028.2,045.5,0.256,753.0,01.17,0.508
2015-08-23 03:57:00,1920E-3,5C000400,-0724,0821,12364,028.3,045.5,0.256,753.1,01.17,0.508
2015-08-23 03:58:00,1912E-3,5C000400,-0724,0821,12385,028.2,045.5,0.256,753.1,01.17,0.508
2015-08-23 03:59:00,1919E-3,5C000400,-0724,0821,12226,028.2,045.5,0.256,753.1,01.17,0.508
2015-08-23 04:00:00,1825E-3,5C000400,-0724,0821,12324,028.2,045.5,0.256,753.1,01.17,0.508
2015-08-23 04:01:00,1956E-3,5C000400,-0724,0821,12319,028.3,045.4,0.256,753.2,01.17,0.508
2015-08-23 04:02:00,1892E-3,5C000400,-0724,0821,12235,028.2,045.5,0.256,753.1,01.17,0.508
2015-08-23 04:03:00,1987E-3,5C000400,-0724,0820,12304,028.2,045.5,0.256,753.3,01.17,0.508
2015-08-23 04:04:00,1984E-3,5C000400,-0724,0821,12385,028.2,045.5,0.256,753.2,01.17,0.508
2015-08-23 04:05:00,1914E-3,5C000400,-0724,0821,12267,028.2,045.5,0.256,753.2,01.17,0.508
2015-08-23 04:06:00,1987E-3,5C000400,-0724,0821,12190,028.2,045.5,0.256,753.1,01.17,0.508
2015-08-23 04:07:00,1983E-3,5C000400,-0724,0822,12219,028.2,045.5,0.256,753.2,01.17,0.508
2015-08-23 04:08:00,1906E-3,5C000400,-0724,0821,12375,028.2,045.5,0.256,753.1,01.17,0.508
2015-08-23 04:09:00,2029E-3,5C000400,-0724,0821,12322,028.2,045.4,0.256,753.1,01.17,0.508
2015-08-23 04:10:00,2100E-3,5C000400,-0724,0822,12294,028.2,045.5,0.256,753.0,01.17,0.508
2015-08-23 04:11:00,1954E-3,5C000400,-0724,0821,12351,028.2,045.5,0.256,753.1,01.17,0.508
2015-08-23 04:12:00,1963E-3,5C000400,-0724,0821,12259,028.2,045.4,0.256,753.0,01.17,0.508
2015-08-23 04:13:00,1961E-3,5C000400,-0724,0821,12213,028.2,045.5,0.256,753.0,01.17,0.508
2015-08-23 04:14:00,2062E-3,5C000400,-0724,0821,12342,028.2,045.5,0.256,753.1,01.17,0.508
2015-08-23 04:15:00,2114E-3,5C000400,-0724,0819,12344,028.2,045.4,0.256,753.2,01.17,0.508
2015-08-23 04:16:00,2066E-3,5C000400,-0724,0820,12310,028.3,045.5,0.256,753.1,01.17,0.508
2015-08-23 04:17:00,1996E-3,5C000400,-0724,0821,12353,028.2,045.5,0.256,753.2,01.17,0.508
2015-08-23 04:18:00,2037E-3,5C000400,-0724,0820,12286,028.2,045.4,0.256,753.2,01.17,0.508
2015-08-23 04:19:00,1971E-3,5C000400,-0724,0821,12260,028.2,045.5,0.256,753.2,01.17,0.508
2015-08-23 04:20:00,1999E-3,5C000400,-0724,0821,12232,028.2,045.5,0.256,753.1,01.17,0.508